Weather in Tainan

Taiwan     22°59′51″N   120°12′02″E
temp.,
°C
wind,
m/s
gust,
m/s
humid.,
%
clouds,
%
prec.,
mm/h
press.,
hPa
HPBL,
m
1 march, mon
mon123:00+23wnw11601 0.0 1017359
02:00+22nnw236819 0.0 1016248
05:00+21n237255 0.0 1016234
08:00+22n226627 0.0 1017288
11:00+27wnw32520 0.0 1018886
14:00+28wnw53520 0.0 1015877
17:00+26nw44590 0.0 1015615
20:00+24nnw23650 0.0 1016417
2 march, tue
tue223:00+24nne22670 0.0 1017351
02:00+23ne22710 0.0 1015225
05:00+22n367215 0.0 1016358
08:00+23n57678 0.0 1018691
11:00+26nnw44540 0.0 1019902
14:00+27nw66441 0.0 1018734
17:00+24n684823 0.0 1019521
20:00+21n565246 0.0 1020374
3 march, wed
wed323:00+20n335681 0.1 1021368
02:00+20n226088 0.4 1020339
05:00+20n236269 0.0 1020328
08:00+21nne216041 0.0 1022360
11:00+25wsw33483 0.0 10221079
14:00+26wnw43483 0.0 10191095
17:00+24nnw55545 0.0 1019732
20:00+22n45595 0.0 1021523
4 march, thu
thu423:00+21n34630 0.0 1021396
02:00+20n34710 0.0 1020316
05:00+19nne23740 0.0 1019230
08:00+21n21680 0.0 1020307
11:00+25w32520 0.0 1020908
14:00+26wnw43510 0.0 1017796
17:00+25nw44540 0.0 1017614
20:00+23n46630 0.0 1019397
5 march, fri
fri523:00+22n24600 0.0 1019335
02:00+22nne22620 0.0 1018222
05:00+21ene11660 0.0 1017128
08:00+23se12620 0.0 1018312
11:00+26wsw33500 0.0 1018824
14:00+27wsw44550 0.0 1016736
17:00+25w33620 0.0 1016540
20:00+24nnw33680 0.0 1016376